Location: Newark
(0.5300°S, 127.4800°E)
Time: 21:45:08
(UTC+00:00)

Transit 4A - Pass Details

Date: 30 September 2019
Orbit: 866 x 978 km, 66.8° (Epoch: 14 October)

Event Time Altitude Azimuth Distance (km) Brightness Sun altitude
Rises 12:06:45 0° 316° (NW) 3,459 11.3 -41.5°
Reaches altitude 10° 12:09:42 10° 302° (WNW) 2,512 10.6 -42.3°
Enters shadow 12:11:49 18° 284° (WNW) 1,983 10.1 -42.8°
